Weather History for Mosby, MO

Change the Weather History Date:

Sunday, December 2, 2012

  Actual Average (KMKC) Record (KMKC)
Temperature  
Mean Temperature 50 °F -  
Max Temperature 66 °F 47 °F 66 °F (1998)
Min Temperature 33 °F 31 °F 19 °F (2014)
Degree Days  
Heating Degree Days 16    
Moisture  
Dew Point 43 °F    
Average Humidity 85    
Maximum Humidity 100    
Minimum Humidity 49    
Precipitation  
Precipitation 0.00 in - - ()
Sea Level Pressure  
Sea Level Pressure 29.95 in    
Wind  
Wind Speed 1 mph ()    
Max Wind Speed 6 mph    
Max Gust Speed -    
Visibility 5.8 miles    
Events Fog    
Averages and records for this station are not official NWS values.
T = Trace of Precipitation, MM = Missing Value Source: Averaged Metar Reports

Daily Weather History Graph

Daily Weather History Graph

Search for Another Location

Airport:

Trip Planner

Search our weather history database for the weather conditions in past years. The results will help you decide how hot, cold, wet, or windy it might be!

Date:

Astronomy

Dec. 02, 2012 Rise Set
Actual Time 7:19 AM CST 4:54 PM CST
Civil Twilight 6:49 AM CST 5:23 PM CST
Nautical Twilight 6:16 AM CST 5:57 PM CST
Astronomical Twilight 5:44 AM CST 6:29 PM CST
Moon 8:41 PM CST (12/2) 10:10 AM CST (12/2)
Length of Visible Light 10h 34m
Length of Day
9h 34m
Waning Gibbous, 85% of the Moon is Illuminated
Dec 2
Waning Gibbous
Dec 6
Last Quarter
Dec 13
New
Dec 19
First Quarter
Dec 28
Full

Hourly Weather History & Observations

Time (CST) Temp. Windchill Dew Point Humidity Pressure Visibility Wind Dir Wind Speed Gust Speed Precip Events Conditions
12:15 AM 41.0 °F - 41.0 °F 100% 29.89 in 0.2 mi Calm Calm - N/A Fog Fog
12:35 AM 41.0 °F - 41.0 °F 100% 29.89 in 0.2 mi Calm Calm - N/A Fog Fog
1:15 AM 39.2 °F - 39.2 °F 100% 29.91 in 0.2 mi Calm Calm - N/A Fog Fog
1:35 AM 37.4 °F - 37.4 °F 100% 29.91 in 0.2 mi Calm Calm - N/A Fog Fog
1:55 AM 37.4 °F - 37.4 °F 100% 29.90 in 0.2 mi Calm Calm - N/A Fog Fog
2:15 AM 37.4 °F - 37.4 °F 100% 29.91 in 0.2 mi Calm Calm - N/A Fog Fog
2:35 AM 37.4 °F - 37.4 °F 100% 29.92 in 0.2 mi Calm Calm - N/A Fog Fog
2:55 AM 37.4 °F - 37.4 °F 100% 29.93 in 0.2 mi Calm Calm - N/A Fog Fog
3:15 AM 37.4 °F - 37.4 °F 100% 29.93 in 0.2 mi Calm Calm - N/A Fog Fog
3:35 AM 37.4 °F - 37.4 °F 100% 29.93 in 0.2 mi Calm Calm - N/A Fog Fog
4:15 AM 35.6 °F - 35.6 °F 100% 29.94 in 0.2 mi Calm Calm - N/A Fog Fog
4:35 AM 37.4 °F - 37.4 °F 100% 29.94 in 0.2 mi Calm Calm - N/A Fog Fog
4:55 AM 35.6 °F - 35.6 °F 100% 29.95 in 0.2 mi Calm Calm - N/A Fog Fog
5:15 AM 35.6 °F - 35.6 °F 100% 29.95 in 0.2 mi Calm Calm - N/A Fog Fog
5:35 AM 35.6 °F - 35.6 °F 100% 29.96 in 0.2 mi Calm Calm - N/A Fog Fog
5:55 AM 35.6 °F - 35.6 °F 100% 29.97 in 0.2 mi Calm Calm - N/A Fog Fog
6:15 AM 35.6 °F - 35.6 °F 100% 29.97 in 0.2 mi Calm Calm - N/A Fog Fog
6:35 AM 35.6 °F - 35.6 °F 100% 29.97 in 0.2 mi Calm Calm - N/A Fog Fog
7:15 AM 33.8 °F - 33.8 °F 100% 29.99 in 0.2 mi Calm Calm - N/A Fog Fog
7:35 AM 33.8 °F - 33.8 °F 100% 29.99 in 0.2 mi Calm Calm - N/A Fog Fog
7:55 AM 33.8 °F - 33.8 °F 100% 30.00 in 0.2 mi Calm Calm - N/A Fog Fog
8:15 AM 35.6 °F - 35.6 °F 100% 30.01 in 0.2 mi Calm Calm - N/A Fog Fog
8:35 AM 35.6 °F - 35.6 °F 100% 30.01 in 0.2 mi Calm Calm - N/A Fog Fog
9:15 AM 37.4 °F - 37.4 °F 100% 30.02 in 0.2 mi Calm Calm - N/A Fog Fog
9:35 AM 41.0 °F - 41.0 °F 100% 30.03 in 0.2 mi Calm Calm - N/A Fog Fog
9:55 AM 41.0 °F - 41.0 °F 100% 30.03 in 0.2 mi Calm Calm - N/A Fog Fog
10:15 AM 44.6 °F - 44.6 °F 100% 30.03 in 0.5 mi Calm Calm - N/A Fog Fog
10:35 AM 46.4 °F - 46.4 °F 100% 30.03 in 3.0 mi Calm Calm - N/A   Mostly Cloudy
10:55 AM 50.0 °F - 50.0 °F 100% 30.03 in 10.0 mi Calm Calm - N/A   Clear
11:15 AM 50.0 °F - 50.0 °F 100% 30.03 in 10.0 mi Calm Calm - N/A   Clear
11:35 AM 51.8 °F - 50.0 °F 94% 30.02 in 10.0 mi SW 3.5 mph - N/A   Clear
11:55 AM 53.6 °F - 50.0 °F 88% 30.02 in 10.0 mi WSW 3.5 mph - N/A   Clear
12:15 PM 55.4 °F - 51.8 °F 88% 30.01 in 10.0 mi Calm Calm - N/A   Clear
12:35 PM 60.8 °F - 50.0 °F 68% 30.00 in 10.0 mi South 4.6 mph - N/A   Clear
12:55 PM 62.6 °F - 50.0 °F 63% 29.99 in 10.0 mi Calm Calm - N/A   Clear
1:15 PM 62.6 °F - 50.0 °F 63% 29.98 in 10.0 mi SSW 4.6 mph - N/A   Unknown
1:35 PM 64.4 °F - 48.2 °F 56% 29.98 in 10.0 mi SW 5.8 mph - N/A   Clear
1:55 PM 64.4 °F - 44.6 °F 49% 29.97 in 10.0 mi SW 3.5 mph - N/A   Clear
2:15 PM 64.4 °F - 46.4 °F 52% 29.97 in 10.0 mi SSW 4.6 mph - N/A   Clear
2:35 PM 66.2 °F - 46.4 °F 49% 29.96 in 10.0 mi South 3.5 mph - N/A   Clear
2:55 PM 66.2 °F - 46.4 °F 49% 29.95 in 10.0 mi SSE 4.6 mph - N/A   Clear
3:15 PM 66.2 °F - 46.4 °F 49% 29.95 in 10.0 mi Calm Calm - N/A   Clear
3:35 PM 66.2 °F - 46.4 °F 49% 29.94 in 10.0 mi SSE 3.5 mph - N/A   Clear
3:55 PM 64.4 °F - 46.4 °F 52% 29.93 in 10.0 mi Calm Calm - N/A   Clear
4:15 PM 64.4 °F - 46.4 °F 52% 29.93 in 10.0 mi Calm Calm - N/A   Clear
4:35 PM 64.4 °F - 46.4 °F 52% 29.92 in 10.0 mi ESE 3.5 mph - N/A   Clear
4:55 PM 62.6 °F - 46.4 °F 55% 29.92 in 10.0 mi Calm Calm - N/A   Clear
5:15 PM 60.8 °F - 46.4 °F 59% 29.92 in 10.0 mi Calm Calm - N/A   Clear
5:35 PM 55.4 °F - 46.4 °F 72% 29.91 in 10.0 mi SE 3.5 mph - N/A   Clear
6:15 PM 51.8 °F - 44.6 °F 76% 29.92 in 10.0 mi ESE 3.5 mph - N/A   Clear
6:35 PM 51.8 °F - 44.6 °F 76% 29.93 in 10.0 mi Calm Calm - N/A   Clear
6:55 PM 51.8 °F - 44.6 °F 76% 29.93 in 10.0 mi Calm Calm - N/A   Clear
7:15 PM 50.0 °F - 44.6 °F 82% 29.93 in 10.0 mi Calm Calm - N/A   Clear
7:35 PM 48.2 °F - 42.8 °F 82% 29.93 in 10.0 mi Calm Calm - N/A   Clear
7:55 PM 46.4 °F - 42.8 °F 87% 29.92 in 10.0 mi Calm Calm - N/A   Clear
8:15 PM 46.4 °F - 42.8 °F 87% 29.92 in 10.0 mi Calm Calm - N/A   Clear
8:35 PM 44.6 °F - 42.8 °F 93% 29.91 in 10.0 mi Calm Calm - N/A   Clear
8:55 PM 44.6 °F - 42.8 °F 93% 29.91 in 10.0 mi Calm Calm - N/A   Clear
9:15 PM 44.6 °F - 42.8 °F 93% 29.90 in 10.0 mi Calm Calm - N/A   Clear
9:35 PM 44.6 °F - 41.0 °F 87% 29.90 in 10.0 mi Calm Calm - N/A   Clear
9:55 PM 44.6 °F 43.1 °F 42.8 °F 93% 29.89 in 10.0 mi SE 3.5 mph - N/A   Clear
10:15 PM 53.6 °F - 51.8 °F 94% 29.89 in 10.0 mi ESE 5.8 mph - N/A   Unknown
10:35 PM 55.4 °F - 53.6 °F 94% 29.89 in 7.0 mi ESE 3.5 mph - N/A   Scattered Clouds
11:15 PM 55.4 °F - 53.6 °F 94% 29.88 in 7.0 mi ESE 4.6 mph - N/A   Clear
11:35 PM 57.2 °F - 53.6 °F 88% 29.87 in 10.0 mi ESE 5.8 mph - N/A   Clear
11:55 PM 57.2 °F - 53.6 °F 88% 29.87 in 10.0 mi SE 3.5 mph - N/A   Scattered Clouds